[[{"header":{"parameterUnit":"m.s-1","parameterCategory":1,"la1":30.2991,"la2":30.254,"lo1":-89.0895,"lo2":-89.0444,"dy":0.0017,"dx":0.0017,"nx":28,"ny":28,"refTime":"2023-08-08T09:00:00:Z","depth":0,"parameterNumber":2,"parameterNumberName":"U-component_of_WINDS"},"data":[0,0,0,0,0,0,0,0,0,0,0,0,0,0,0,0,0,0,0,0,0,0,0,0,0,0,0,0,0,0,0,0,0,0,0,0,0,0,0,0,0,0,0,0,0,0,0,0,0,0,0,0,0,0,0,0,0,0,1.367,1.3671,0,1.3813,1.3815,1.3817,1.3888,1.3888,1.3888,1.3888,1.4038,1.4042,1.4046,0,0,0,0,0,0,0,0,0,0,0,0,0,1.3462,1.3466,1.367,1.3672,1.3673,1.3813,1.3815,1.3817,1.3888,1.3888,1.3888,1.3888,1.4037,1.4041,1.4046,0,0,0,0,0,0,0,0,0,0,0,0,0,1.3574,1.3467,1.367,1.3726,1.3732,1.3813,1.3815,1.3817,1.3888,1.3888,1.3888,1.3888,1.4035,1.4041,1.4047,1.4084,0,0,1.4065,1.4068,0,0,0,0,0,0,0,0,1.3567,1.3581,1.3716,1.3722,1.3729,1.3833,1.3797,1.3907,1.3888,1.3829,1.3888,1.3888,1.397,1.3981,1.4008,1.4091,1.4097,1.4066,1.4069,1.4072,1.4074,0,0,0,0,0,0,0,1.3559,1.3575,1.3727,1.3717,1.3726,1.3745,1.3761,1.3818,1.3898,1.3834,1.3839,1.3855,1.3974,1.4002,1.4012,1.4099,1.4066,1.4071,1.4075,1.4077,1.4222,1.4222,0,0,0,0,0,0,1.3542,1.3568,1.3722,1.3731,1.3646,1.3749,1.3766,1.3799,1.3897,1.3912,1.3855,1.3858,1.3992,1.4005,1.4018,1.4068,1.4072,1.4078,1.4081,1.4222,1.4222,1.4222,0,0,0,0,0,0,1.3537,1.3555,1.3716,1.3651,1.3673,1.3752,1.3789,1.3802,1.3831,1.3913,1.3928,1.3869,1.3993,1.4009,1.4067,1.4075,1.408,1.4086,1.4221,1.4222,1.4222,1.4169,0,0,0,0,0,0,1.3531,1.3553,1.3566,1.3651,1.3676,1.3761,1.3789,1.3805,1.3841,1.3846,1.393,1.3945,1.3994,1.4058,1.4073,1.4083,1.409,1.4221,1.4221,1.4222,1.417,1.4167,1.4165,0,0,0,0,0,1.3523,1.3546,1.3567,1.3585,1.3695,1.3762,1.3776,1.3832,1.3841,1.3856,1.3909,1.3942,1.4071,1.4063,1.4081,1.4093,1.4221,1.4221,1.4222,1.4171,1.4168,1.4165,0,0,0,0,0,0,1.346,1.3558,1.3582,1.3632,1.3688,1.3773,1.3794,1.3826,1.3881,1.3883,1.3951,1.397,1.4021,1.4063,1.4052,1.4135,1.4149,1.4154,1.4105,1.4102,1.41,1.4088,1.4095,0,0,0,0,0,1.3452,1.3497,1.3581,1.3617,1.3644,1.3714,1.3745,1.3783,1.3844,1.3868,1.3926,1.3984,1.4039,1.4073,1.4128,1.4177,1.4198,1.4194,1.4192,1.4189,1.4192,1.4223,1.4223,1.4224,1.4224,1.4224,0,0,1.3436,1.3495,1.3519,1.3606,1.3654,1.37,1.3733,1.3781,1.3816,1.3876,1.3933,1.3978,1.4049,1.4102,1.4129,1.4139,1.4196,1.419,1.4187,1.4191,1.4223,1.4223,1.4223,1.4224,1.4224,1.4224,0,0,1.343,1.3479,1.3515,1.3562,1.3634,1.3681,1.369,1.3771,1.3803,1.3862,1.3908,1.3952,1.4044,1.4093,1.4129,1.4144,1.4177,1.4161,1.4146,1.4176,1.4176,1.4176,1.4182,1.4183,1.4163,1.4163,1.4163,0,1.3401,1.3471,1.353,1.3575,1.3613,1.3669,1.3707,1.3751,1.3837,1.3862,1.3872,1.3989,1.404,1.4107,1.4111,1.4139,1.4152,1.4151,1.4171,1.4172,1.4173,1.4179,1.4181,1.4161,1.4161,1.4161,1.4161,0,1.3432,1.3481,1.3502,1.3583,1.3624,1.3665,1.3731,1.3766,1.3801,1.3847,1.3908,1.3972,1.4041,1.406,1.4095,1.4133,1.4136,1.4157,1.4174,1.4169,1.4177,1.418,1.4157,1.4158,1.4159,1.4159,0,0,1.3388,1.3503,1.351,1.3548,1.3633,1.3672,1.3718,1.3784,1.3813,1.3871,1.3912,1.3989,1.401,1.4051,1.4093,1.4119,1.4128,1.4137,1.414,1.4134,1.4175,1.4158,1.416,1.4151,1.4151,1.4152,1.4169,0,1.3394,1.3476,1.3531,1.3592,1.3639,1.3695,1.3734,1.3792,1.3837,1.3884,1.3936,1.3989,1.4012,1.4038,1.4066,1.4121,1.4137,1.412,1.419,1.4192,1.417,1.4164,1.4146,1.416,1.4173,1.4173,1.4174,0,1.3411,1.3467,1.3533,1.3614,1.3636,1.367,1.3737,1.3782,1.3849,1.388,1.3928,1.397,1.4023,1.4035,1.4109,1.4096,1.4128,1.416,1.4162,1.417,1.4182,1.4172,1.4165,1.4167,1.4179,1.4178,1.4178,0,1.3372,1.3465,1.3517,1.3548,1.3644,1.3667,1.3709,1.3776,1.3813,1.3873,1.3898,1.3963,1.3998,1.4048,1.4108,1.4111,1.4176,1.4193,1.4205,1.4203,1.4215,1.4214,1.4213,1.4236,1.4236,1.4236,1.4236,0,1.3372,1.341,1.3501,1.3532,1.3577,1.3642,1.3686,1.3732,1.3792,1.3835,1.3888,1.3927,1.4004,1.4053,1.4101,1.4155,1.4171,1.4199,1.4211,1.4194,1.419,1.4216,1.4216,1.4237,1.4237,1.4237,1.4236,0,1.3335,1.3397,1.3458,1.3545,1.3568,1.3597,1.3673,1.3707,1.3756,1.381,1.3826,1.3904,1.3965,1.403,1.4113,1.4146,1.4198,1.4215,1.4175,1.4182,1.419,1.4188,1.4205,1.4211,1.423,1.4229,1.4229,0,1.333,1.3361,1.3452,1.3484,1.3524,1.3576,1.3615,1.3681,1.3719,1.38,1.3824,1.389,1.3945,1.4041,1.4106,1.417,1.419,1.4191,1.4199,1.4182,1.419,1.4187,1.4191,1.4188,1.4187,1.4187,1.4186,0,1.3316,1.3346,1.3399,1.3464,1.3509,1.3563,1.362,1.3644,1.3722,1.3763,1.3826,1.3869,1.3955,1.4019,1.4092,1.4137,1.4175,1.4184,1.419,1.4172,1.4148,1.4162,1.4167,1.4182,1.4183,1.4183,1.4183,1.4184,1.3295,1.3325,1.3395,1.3453,1.3503,1.3555,1.3592,1.3647,1.37,1.3774,1.3811,1.3875,1.3944,1.4046,1.409,1.4142,1.4153,1.4162,1.4164,1.4165,1.4161,1.414,1.4156,1.4156,1.4156,1.4156,1.4156,0,1.3283,1.3331,1.3384,1.3462,1.3509,1.3541,1.3606,1.3643,1.3698,1.3759,1.3813,1.3887,1.3951,1.4022,1.409,1.4118,1.4138,1.4134,1.4132,1.4142,1.4147,1.4135,1.4117,1.4117,1.4117,1.4117,1.4117,1.4117,1.3282,1.3335,1.3374,1.3454,1.3503,1.3565,1.36,1.3649,1.3699,1.3778,1.3832,1.3877,1.3943,1.4018,1.4078,1.4098,1.4121,1.4112,1.4136,1.4139,1.4142,1.4145,1.4134,1.4116,1.4116,1.4128,1.4128,1.4128]},{"header":{"parameterUnit":"m.s-1","parameterCategory":1,"la1":30.2991,"la2":30.254,"lo1":-89.0895,"lo2":-89.0444,"dy":0.0017,"dx":0.0017,"nx":28,"ny":28,"refTime":"2023-08-08T09:00:00:Z","depth":0,"parameterNumber":3,"parameterNumberName":"V-component_of_WINDS"},"data":[0,0,0,0,0,0,0,0,0,0,0,0,0,0,0,0,0,0,0,0,0,0,0,0,0,0,0,0,0,0,0,0,0,0,0,0,0,0,0,0,0,0,0,0,0,0,0,0,0,0,0,0,0,0,0,0,0,0,4.0982,4.0983,0,4.1017,4.1017,4.1018,4.1026,4.1026,4.1025,4.1025,4.1057,4.1058,4.1059,0,0,0,0,0,0,0,0,0,0,0,0,0,4.0918,4.0919,4.0982,4.0983,4.0983,4.1017,4.1017,4.1018,4.1026,4.1026,4.1025,4.1025,4.1056,4.1057,4.1059,0,0,0,0,0,0,0,0,0,0,0,0,0,4.0948,4.0919,4.0982,4.0991,4.0993,4.1017,4.1017,4.1018,4.1026,4.1026,4.1025,4.1025,4.1056,4.1057,4.1059,4.1075,0,0,4.1064,4.1064,0,0,0,0,0,0,0,0,4.0947,4.0951,4.099,4.0991,4.0992,4.1017,4.1006,4.1037,4.1026,4.1013,4.1025,4.1025,4.1043,4.1046,4.1053,4.1076,4.1078,4.1064,4.1065,4.1065,4.1066,0,0,0,0,0,0,0,4.0945,4.0949,4.0996,4.099,4.0992,4.0992,4.0996,4.1012,4.1029,4.1014,4.1015,4.1019,4.1044,4.1051,4.1054,4.1078,4.1064,4.1065,4.1066,4.1067,4.1114,4.1115,0,0,0,0,0,0,4.0941,4.0947,4.0995,4.0997,4.0968,4.0993,4.0998,4.1009,4.1029,4.1032,4.1019,4.1019,4.1049,4.1052,4.1055,4.1074,4.1065,4.1067,4.1068,4.1114,4.1114,4.1115,0,0,0,0,0,0,4.094,4.0946,4.0993,4.0972,4.0978,4.0995,4.1007,4.101,4.1018,4.1033,4.1036,4.1024,4.1049,4.1053,4.107,4.1075,4.1067,4.1069,4.1114,4.1114,4.1115,4.1113,0,0,0,0,0,0,4.0938,4.0945,4.0953,4.0973,4.098,4.1009,4.1008,4.1011,4.1021,4.1021,4.1039,4.1041,4.1049,4.1067,4.1071,4.1077,4.107,4.1113,4.1114,4.1115,4.1112,4.1113,4.1114,0,0,0,0,0,4.0936,4.095,4.0953,4.0959,4.099,4.1009,4.1013,4.1023,4.1021,4.1028,4.1038,4.104,4.1074,4.1069,4.1073,4.108,4.1113,4.1114,4.1114,4.1112,4.1113,4.1114,0,0,0,0,0,0,4.093,4.0953,4.0957,4.0978,4.0992,4.1011,4.102,4.1024,4.1038,4.1037,4.1047,4.1051,4.1067,4.1075,4.1069,4.1096,4.1093,4.1095,4.109,4.1091,4.1092,4.1089,4.1071,0,0,0,0,0,4.0931,4.0947,4.0966,4.0983,4.0989,4.1003,4.1012,4.1019,4.1033,4.1038,4.105,4.1062,4.1075,4.1083,4.1096,4.1114,4.1117,4.112,4.1121,4.1121,4.1122,4.113,4.1132,4.1117,4.1117,4.1117,0,0,4.0933,4.0948,4.0957,4.0982,4.0993,4.1007,4.1008,4.1024,4.1034,4.104,4.1057,4.1066,4.108,4.1097,4.1105,4.1104,4.1127,4.1122,4.1122,4.1123,4.1131,4.1133,4.1134,4.1118,4.1118,4.1118,0,0,4.0945,4.0959,4.0974,4.0985,4.1003,4.1012,4.1015,4.1033,4.104,4.1057,4.1062,4.1073,4.1096,4.1106,4.1113,4.1127,4.113,4.1131,4.1134,4.1142,4.1143,4.1144,4.1148,4.115,4.1132,4.1132,4.1132,0,4.0946,4.0969,4.098,4.0996,4.1005,4.1013,4.1027,4.1037,4.1057,4.1063,4.1062,4.109,4.11,4.1119,4.1122,4.1129,4.1132,4.1129,4.1143,4.1144,4.1145,4.1149,4.115,4.1132,4.1132,4.1132,4.1132,0,4.0968,4.0984,4.0993,4.1014,4.1025,4.1039,4.1051,4.106,4.1065,4.1074,4.109,4.1103,4.1118,4.1123,4.1127,4.1141,4.114,4.1141,4.1139,4.1146,4.115,4.1151,4.1132,4.1132,4.1132,4.1132,0,0,4.0977,4.1003,4.1007,4.1016,4.1035,4.1046,4.106,4.1076,4.1083,4.1096,4.1107,4.1126,4.1126,4.1135,4.1141,4.1148,4.1156,4.1147,4.1148,4.1148,4.1171,4.117,4.1172,4.1158,4.1158,4.1159,4.1169,0,4.0991,4.1017,4.1027,4.1048,4.1062,4.1069,4.108,4.1093,4.11,4.1112,4.112,4.1133,4.1133,4.1138,4.1145,4.1154,4.1161,4.1153,4.1167,4.1167,4.1163,4.1174,4.1173,4.1183,4.1171,4.1171,4.1171,0,4.101,4.1025,4.1047,4.1064,4.107,4.1081,4.1095,4.1107,4.1119,4.1125,4.1134,4.1139,4.1152,4.1149,4.1166,4.116,4.1166,4.1171,4.1172,4.1173,4.1169,4.1174,4.1186,4.1187,4.1174,4.1174,4.1174,0,4.1013,4.1038,4.1055,4.1062,4.1082,4.1089,4.1097,4.111,4.1119,4.1131,4.1136,4.1149,4.1156,4.1165,4.1173,4.1171,4.1189,4.1187,4.1192,4.1192,4.1195,4.1195,4.1207,4.12,4.12,4.12,4.12,0,4.1027,4.104,4.1056,4.1066,4.1081,4.1091,4.1105,4.1113,4.1124,4.1135,4.1141,4.115,4.116,4.1171,4.1177,4.1189,4.1192,4.1195,4.1197,4.1195,4.1194,4.1198,4.1198,4.1201,4.12,4.12,4.12,0,4.1033,4.1044,4.1063,4.108,4.1085,4.1094,4.1108,4.1117,4.1125,4.1138,4.1142,4.1154,4.1166,4.1175,4.119,4.1194,4.1207,4.1209,4.1203,4.1204,4.1208,4.1208,4.1224,4.1226,4.1217,4.1218,4.1218,0,4.104,4.1051,4.1069,4.1078,4.1086,4.1099,4.1108,4.1118,4.1126,4.1141,4.1148,4.1161,4.1172,4.1191,4.12,4.1211,4.1213,4.1218,4.1214,4.1212,4.1212,4.1211,4.1212,4.1218,4.1218,4.1218,4.1218,0,4.1052,4.1057,4.1071,4.1085,4.1096,4.1108,4.1119,4.1125,4.1137,4.1146,4.1159,4.1168,4.1184,4.1196,4.1208,4.1215,4.1218,4.1219,4.1221,4.1218,4.1214,4.1216,4.1204,4.1218,4.1218,4.1218,4.1218,4.1218,4.1059,4.1068,4.1082,4.1096,4.1106,4.1117,4.1126,4.1135,4.1147,4.1161,4.1166,4.1179,4.1191,4.1208,4.1214,4.1224,4.1224,4.1226,4.1227,4.1227,4.1227,4.1213,4.1226,4.1226,4.1226,4.1226,4.1226,0,4.107,4.108,4.1092,4.1109,4.112,4.1123,4.1136,4.1144,4.1156,4.1167,4.1177,4.1191,4.1203,4.1213,4.1225,4.123,4.1232,4.1233,4.1232,4.1233,4.1227,4.1224,4.1231,4.1231,4.1231,4.1231,4.1231,4.1231,4.1077,4.1093,4.1099,4.1119,4.1128,4.1142,4.1149,4.1158,4.1167,4.1183,4.1193,4.12,4.1209,4.1222,4.1232,4.1234,4.1238,4.1239,4.1241,4.1235,4.1234,4.1233,4.1231,4.1239,4.1239,4.1247,4.1247,4.1247]}]]